Dewpoint
13 10 8 9 9 9 10 11 11 12 12 12 5 0 1 2 4 5 6 7 8 8 8 8 8 6 4 4 5 5 6 8 5 6 7 8 7 7 5 0 1 2 5
13 13 12 12 12 10 11 11 11 11 12 12 12 10 3 1 2 6 6 7 8 8 8 8 8 8 6 5 5 5 6 6 7 7 7 7 8 8 6 1 1 1 2
13 13 13 13 13 12 12 12 12 12 12 11 11 12 12 5 1 3 8 8 8 9 8 8 8 8 7 5 6 5 5 6 6 6 7 8 8 8 7 2 -0 1 2
13 13 13 12 12 13 12 12 12 12 12 11 12 11 12 7 5 4 7 9 10 10 9 8 7 7 6 6 7 6 5 5 6 7 8 8 8 8 8 8 6 5 4
12 12 13 12 11 12 12 11 12 12 12 12 11 11 11 10 9 9 9 9 10 10 9 7 6 6 5 6 7 7 7 6 6 7 8 8 9 9 9 9 7 6 6
3 11 12 13 12 12 12 11 12 12 12 12 12 11 11 11 11 11 10 10 10 10 10 10 10 10 10 6 6 6 7 6 6 7 7 8 8 8 9 9 8 7 7
-5 4 10 11 11 11 11 11 11 12 12 12 12 12 11 11 12 12 11 11 10 9 9 9 8 9 10 8 7 6 6 7 6 8 8 8 8 8 9 9 9 8 8
-3 -5 -0 8 12 11 11 11 11 11 12 11 12 12 12 11 11 11 11 10 10 9 8 8 8 8 9 9 9 9 8 7 7 8 8 8 8 8 8 9 9 8 8
-1 -1 -4 -4 5 10 10 10 10 11 12 11 11 11 11 10 9 8 8 8 7 6 5 5 6 7 8 9 9 8 9 9 7 8 8 8 8 8 8 8 7 7 8
1 -0 1 2 -1 1 9 9 10 9 10 10 10 11 10 9 8 8 7 7 6 6 6 8 8 8 8 7 8 8 8 8 8 9 9 8 7 8 8 8 8 8 8
1 1 1 3 6 3 3 9 9 9 9 10 9 10 9 9 9 9 10 10 8 8 7 8 9 9 9 9 9 8 8 9 9 9 8 7 7 7 7 6 6 8 8
0 0 0 1 1 4 4 7 9 9 9 9 9 10 10 9 8 8 10 10 9 8 9 9 9 9 9 9 10 10 10 10 10 9 8 7 7 7 7 7 7 7 8
2 -0 0 1 1 0 4 6 7 8 8 10 10 10 10 10 9 10 10 10 9 8 8 9 9 9 9 9 10 10 9 9 9 8 8 8 8 8 8 8 8 8 8
1 2 4 4 2 1 3 7 7 7 8 8 9 10 10 10 9 10 9 9 9 9 9 9 9 9 9 9 10 9 8 8 8 9 9 9 8 8 7 8 8 7 7
3 3 2 3 3 5 6 6 7 7 7 9 9 9 9 9 9 9 9 8 9 9 9 9 9 9 9 9 9 9 8 9 9 9 8 8 8 9 8 8 7 6 2
6 6 7 6 3 5 7 7 6 7 8 8 8 8 8 8 8 8 8 8 8 8 9 8 9 9 9 9 9 9 8 9 8 8 8 8 8 7 3 -3 -9 -15 -19
6 6 5 4 6 7 6 7 6 6 7 7 7 8 8 8 9 9 7 8 8 7 8 9 9 8 7 8 7 8 8 7 7 6 4 -1 -11 -18 -21 -23 -23 -21 -19
5 5 3 5 4 5 5 6 6 6 6 7 7 8 8 8 8 8 8 7 8 8 8 8 7 7 6 6 6 6 0 -14 -18 -20 -23 -25 -26 -27 -26 -25 -25 -24 -21
6 5 5 5 5 4 4 5 5 5 6 7 7 7 7 7 7 7 6 6 6 6 6 6 6 6 4 1 -11 -20 -22 -24 -24 -24 -25 -25 -24 -23 -23 -20 -17 -14 -12
5 5 6 6 6 6 5 5 6 5 6 6 6 5 6 5 5 5 3 -1 -4 -4 -14 -18 -18 -19 -20 -21 -23 -24 -26 -26 -28 -26 -24 -22 -21 -21 -19 -15 -13 -10 -8
4 4 5 4 4 4 1 4 2 1 0 1 3 1 -2 -5 -6 -10 -16 -16 -18 -21 -22 -23 -23 -22 -21 -22 -20 -20 -21 -22 -24 -22 -20 -22 -22 -23 -17 -14 -11 -8 -5
-7 -5 -4 -6 -8 -7 -6 0 -10 -12 -13 -13 -13 -12 -13 -13 -14 -18 -20 -22 -23 -23 -24 -23 -22 -20 -17 -16 -16 -15 -14 -11 -12 -17 -13 -20 -16 -16 -11 -9 -7 -6 -5
-15 -15 -16 -17 -18 -17 -15 -14 -15 -15 -15 -15 -14 -13 -13 -16 -18 -18 -19 -21 -21 -21 -21 -19 -17 -15 -14 -12 -13 -12 -10 -6 -5 -11 -7 -7 -13 -11 -10 -9 -6 -5 -2
-16 -16 -16 -16 -16 -17 -17 -17 -17 -17 -17 -16 -16 -16 -16 -17 -18 -21 -21 -20 -19 -18 -17 -16 -15 -15 -16 -15 -13 -11 -9 -8 -8 -10 -7 -6 -7 -7 -8 -7 -6 -4 -3
-17 -17 -17 -16 -17 -18 -19 -20 -20 -19 -19 -18 -18 -19 -19 -19 -19 -21 -20 -18 -18 -17 -16 -16 -17 -16 -16 -16 -15 -12 -10 -10 -8 -8 -10 -5 -5 -6 -6 -7 -5 -4 -5
-18 -18 -17 -17 -18 -19 -19 -20 -21 -20 -20 -19 -19 -19 -19 -19 -18 -19 -18 -18 -17 -17 -18 -18 -17 -17 -16 -15 -13 -12 -9 -8 -8 -7 -6 -6 -6 -6 -6 -6 -5 -6 -5
Wind_Speed
25 26 27 26 27 27 26 23 23 24 24 22 22 23 23 21 21 21 22 19 17 16 15 15 16 16 16 16 16 15 15 16 15 14 13 13 13 13 13 12 12 12 12
28 26 26 27 27 28 27 25 21 21 23 24 25 24 24 25 24 23 21 21 19 18 18 18 18 18 18 18 19 18 17 17 17 16 16 16 15 15 14 13 13 13 12
33 31 30 30 30 30 27 29 27 24 24 25 28 28 26 26 26 25 24 22 20 21 21 21 22 21 21 21 21 20 20 20 19 19 19 19 18 17 16 14 13 13 13
34 35 35 33 34 35 32 32 30 29 26 27 29 28 27 24 23 24 23 22 20 23 25 25 25 24 23 22 22 22 22 23 23 23 22 22 21 20 18 18 16 14 13
37 35 36 35 33 33 34 32 32 31 29 27 29 28 27 26 25 24 24 24 22 23 23 25 25 25 26 25 25 25 25 24 24 25 25 25 24 23 22 21 19 17 15
38 39 36 36 33 35 34 35 34 33 32 31 30 31 31 30 26 26 24 22 24 25 27 26 26 28 29 28 28 28 28 27 27 27 26 26 26 26 24 25 23 21 20
30 40 38 38 37 36 36 35 34 35 35 32 32 31 32 32 28 29 25 26 26 27 27 27 27 29 29 30 31 31 31 30 30 29 27 28 28 26 26 26 25 26 25
28 31 40 37 38 35 34 34 36 36 35 34 33 31 28 27 28 28 28 28 28 27 28 29 30 30 30 31 32 30 31 33 33 30 28 26 25 24 25 25 25 28 28
25 26 30 36 38 37 36 35 34 37 38 34 32 28 9 13 15 22 26 26 22 22 25 27 28 29 27 27 30 32 33 33 33 31 29 27 24 22 23 24 26 27 28
25 24 22 25 32 37 35 34 34 37 35 36 31 30 30 21 11 11 18 21 21 24 27 26 27 28 29 31 34 33 32 30 29 28 28 26 24 22 23 23 24 29 31
23 22 22 21 19 24 33 35 32 31 32 34 33 29 27 28 27 27 24 25 24 25 26 27 26 23 29 30 32 31 30 27 27 29 28 26 28 27 30 33 35 31 32
20 19 21 21 23 23 24 31 31 28 28 30 29 30 30 25 26 24 26 27 28 31 30 28 24 27 23 26 26 28 30 28 31 32 29 29 29 32 33 33 33 34 33
18 18 19 20 21 22 22 24 29 31 29 28 29 30 29 24 24 23 25 26 29 32 32 30 29 27 29 21 23 25 26 26 28 30 32 32 33 32 31 33 34 34 35
17 15 15 19 20 19 19 19 24 28 26 23 24 24 23 20 21 21 22 24 27 29 26 26 30 26 22 25 27 25 27 29 27 27 26 26 30 32 32 34 35 39 39
15 14 17 18 17 15 14 17 19 19 19 18 20 19 18 20 20 22 22 23 27 25 24 24 22 27 23 22 24 26 28 27 26 25 27 28 32 31 35 37 41 43 43
16 14 14 15 15 14 12 15 16 15 15 17 17 20 20 21 22 23 23 25 27 27 30 21 18 22 24 22 23 25 20 24 23 27 28 29 32 36 39 40 42 43 43
14 12 10 12 12 12 13 14 14 15 18 18 20 21 23 24 24 20 26 27 25 28 34 26 24 19 18 18 18 17 20 23 25 28 31 33 35 36 37 38 39 39 39
10 8 9 11 8 9 11 14 15 17 19 21 22 24 25 24 19 23 23 25 30 26 23 19 15 13 16 19 22 23 23 23 25 26 28 29 31 32 33 35 35 36 36
8 10 11 10 11 12 13 14 14 14 13 13 13 12 13 17 19 17 15 11 13 10 10 14 18 20 22 23 20 19 21 23 21 22 23 24 25 26 28 30 30 30 30
3 4 6 8 4 6 5 9 9 11 11 10 7 7 7 6 7 8 7 8 9 10 10 10 11 13 15 18 20 23 22 21 20 20 21 21 22 25 27 27 26 26 27
3 2 2 2 1 4 6 3 2 1 2 3 4 4 5 5 4 6 6 6 7 7 9 9 11 12 14 16 18 20 23 25 22 21 22 20 23 22 20 22 24 22 23
2 1 1 1 3 5 5 2 2 2 1 1 0 1 2 2 2 4 3 5 7 8 10 10 10 12 14 16 18 20 21 23 25 20 28 24 26 21 19 20 19 20 21
1 1 1 1 1 2 2 3 3 2 3 3 3 3 3 3 4 4 5 7 9 11 11 11 11 13 16 18 21 21 19 19 20 24 26 31 25 22 20 18 18 16 13
3 3 3 3 2 2 2 2 1 2 3 3 3 3 4 5 6 6 7 9 10 10 10 12 13 15 17 19 21 20 22 22 24 23 22 27 23 26 25 21 16 11 13
6 5 4 4 3 4 4 4 4 3 4 4 4 4 4 5 7 8 8 8 9 9 10 12 14 17 18 20 21 21 22 23 26 25 20 16 25 31 28 24 12 11 28
8 8 7 6 6 6 5 5 5 5 5 5 5 6 7 8 9 11 11 11 11 13 13 13 13 15 17 19 20 19 18 18 20 18 11 23 27 27 20 18 24 28 26
Wind_Direction
257 255 253 252 249 246 245 245 245 247 251 252 250 247 244 243 243 248 246 252 260 262 271 277 287 291 292 286 283 281 280 276 274 277 282 288 296 298 296 289 287 288 289
254 253 251 252 250 243 243 241 247 252 255 255 254 253 251 247 246 247 247 249 259 265 266 271 276 282 289 291 288 282 278 274 271 272 277 283 286 289 290 287 282 287 294
252 253 254 252 251 245 246 246 245 249 254 256 254 253 254 251 248 246 247 253 260 268 270 272 274 275 283 284 284 286 279 274 272 271 275 278 278 279 283 284 280 279 286
251 254 257 255 254 250 251 251 247 248 255 257 253 253 250 248 246 243 247 253 263 274 269 268 271 273 275 276 278 283 283 278 274 274 274 275 276 276 275 277 274 275 278
253 255 253 256 253 251 252 254 250 250 256 258 256 255 248 245 244 247 247 252 263 271 270 268 268 269 269 270 272 277 280 281 281 277 275 276 276 275 271 272 272 274 279
246 253 254 254 251 257 258 254 252 251 258 262 261 257 252 251 245 248 251 260 265 269 271 270 269 272 270 268 269 273 274 278 280 279 278 276 274 273 272 271 269 272 281
259 245 255 254 257 254 258 258 255 256 259 257 256 261 261 258 254 253 253 258 259 262 269 271 273 275 272 269 269 271 272 274 277 279 277 273 274 270 269 268 269 271 279
257 256 251 255 256 257 256 256 256 259 260 259 254 256 263 260 253 252 250 254 258 266 271 273 274 275 270 271 269 270 268 269 272 275 275 273 273 273 270 268 269 277 280
265 265 256 256 255 256 258 258 253 259 261 260 256 247 218 233 249 254 255 257 257 261 270 273 273 274 273 270 266 269 270 268 265 269 269 268 263 265 266 270 277 284 285
270 262 263 265 262 256 254 257 259 257 259 259 253 244 238 245 235 260 260 261 266 272 278 273 270 269 271 273 275 270 270 270 263 258 264 258 265 271 273 276 279 282 284
269 266 262 266 274 265 255 255 258 258 256 254 252 248 244 246 253 254 265 267 277 277 286 292 295 283 278 274 275 271 266 261 255 251 249 252 265 275 274 277 280 284 284
267 266 265 265 268 273 264 255 257 259 261 256 257 253 254 253 258 259 257 265 280 291 294 295 299 290 284 281 278 268 266 269 262 253 250 262 271 273 277 281 284 288 287
276 269 268 266 265 259 266 257 254 261 261 262 266 263 257 254 257 260 266 274 282 289 293 294 297 286 283 268 261 270 277 267 264 265 262 268 272 276 279 281 283 285 284
280 270 272 274 274 265 260 260 255 258 261 260 257 259 258 258 260 261 273 278 286 284 285 286 296 290 274 257 259 262 269 271 269 263 262 265 276 278 277 281 278 287 286
288 283 281 283 283 267 261 258 260 261 257 254 256 260 265 263 268 269 275 278 279 280 279 288 292 273 264 262 263 262 257 255 253 254 270 275 271 268 273 279 283 286 287
288 285 287 288 280 270 271 282 265 256 261 260 256 262 260 261 267 269 272 274 277 274 277 279 264 265 267 252 251 242 238 253 260 271 272 266 274 280 283 285 287 287 286
277 276 275 294 292 259 257 259 257 257 256 256 257 259 260 259 269 262 274 274 270 272 267 253 257 228 226 234 242 252 274 273 273 279 281 282 285 286 286 286 286 286 287
292 282 285 279 272 275 274 280 276 266 260 258 260 259 262 262 259 264 268 266 260 254 255 239 245 246 264 278 283 286 292 288 286 286 286 288 289 292 294 293 292 291 289
266 257 260 261 261 269 272 273 276 280 273 262 255 262 265 263 243 242 243 237 237 239 260 266 269 277 284 291 295 288 289 289 294 296 296 296 296 295 295 296 296 294 291
286 238 232 249 271 285 291 286 263 256 248 249 247 243 239 235 245 258 271 278 287 296 300 296 296 294 290 288 294 297 292 295 298 299 302 303 301 302 302 301 297 292 292
75 133 163 146 235 289 314 305 257 225 216 230 230 235 246 249 287 291 277 285 292 288 286 289 293 297 298 301 306 310 311 311 312 311 306 308 306 305 302 299 300 299 300
52 47 338 300 287 285 319 206 226 210 251 291 346 243 253 269 263 254 274 298 315 325 324 324 318 312 312 313 312 315 318 322 325 314 315 314 318 316 313 310 318 310 304
2 328 293 245 255 300 79 128 160 198 224 238 231 225 236 264 296 325 336 337 336 330 325 326 323 321 321 324 323 320 319 318 311 314 317 316 324 320 324 325 319 308 311
283 279 281 290 297 298 298 303 281 262 255 254 261 285 306 321 325 333 333 334 333 332 331 331 328 325 321 319 319 317 314 309 307 312 318 313 327 326 328 332 323 298 298
278 274 268 274 289 297 297 295 292 284 277 274 272 276 284 295 302 313 325 327 328 324 328 327 327 326 324 321 317 314 315 316 317 317 324 313 321 323 326 333 324 307 323
257 259 263 267 266 266 275 285 286 282 286 288 292 296 301 304 310 317 327 329 327 324 328 326 322 323 325 323 320 319 320 318 321 329 307 316 319 326 323 331 314 324 329
Height
1522 1522 1523 1523 1523 1524 1524 1524 1525 1527 1527 1528 1529 1530 1531 1532 1533 1534 1535 1536 1537 1537 1538 1537 1537 1536 1536 1535 1534 1534 1533 1533 1532 1532 1532 1531 1530 1529 1528 1527 1526 1525 1524
1517 1517 1517 1518 1518 1518 1519 1520 1521 1522 1523 1524 1525 1525 1527 1528 1529 1530 1531 1532 1533 1533 1534 1534 1534 1534 1533 1532 1531 1531 1531 1530 1529 1529 1529 1528 1528 1527 1526 1525 1524 1523 1522
1511 1511 1511 1512 1513 1513 1515 1516 1516 1517 1518 1518 1519 1520 1521 1522 1524 1525 1527 1528 1529 1529 1530 1530 1530 1530 1530 1529 1528 1527 1526 1526 1526 1526 1525 1525 1524 1523 1523 1522 1521 1520 1519
1504 1504 1504 1505 1507 1508 1509 1509 1510 1511 1512 1513 1513 1514 1515 1517 1518 1520 1521 1522 1523 1524 1524 1525 1526 1525 1525 1525 1524 1523 1522 1522 1522 1521 1521 1521 1520 1519 1519 1518 1517 1516 1515
1497 1497 1497 1499 1501 1501 1502 1504 1504 1505 1506 1507 1508 1510 1511 1511 1513 1514 1515 1517 1517 1519 1519 1519 1520 1520 1520 1520 1519 1519 1518 1518 1517 1517 1516 1516 1516 1515 1515 1514 1514 1513 1512
1490 1491 1491 1492 1494 1495 1495 1497 1498 1500 1500 1501 1503 1503 1505 1506 1507 1508 1509 1511 1512 1513 1514 1513 1513 1513 1513 1513 1513 1514 1513 1513 1512 1512 1512 1511 1510 1510 1509 1509 1509 1509 1507
1481 1483 1484 1486 1487 1488 1489 1491 1493 1494 1495 1496 1497 1498 1497 1498 1499 1501 1502 1504 1506 1507 1508 1507 1507 1507 1507 1507 1507 1507 1507 1507 1506 1506 1505 1505 1504 1503 1503 1503 1503 1503 1502
1474 1475 1476 1479 1481 1482 1483 1484 1487 1488 1488 1489 1491 1493 1492 1493 1493 1495 1496 1498 1500 1501 1501 1501 1501 1500 1500 1500 1500 1500 1500 1500 1500 1499 1499 1499 1498 1498 1497 1497 1497 1497 1496
1468 1468 1469 1471 1473 1475 1476 1477 1480 1482 1482 1483 1485 1489 1487 1486 1488 1489 1491 1493 1494 1494 1495 1495 1494 1494 1493 1492 1492 1492 1492 1492 1492 1493 1493 1493 1492 1491 1492 1492 1491 1490 1490
1462 1462 1463 1464 1465 1467 1469 1471 1473 1475 1477 1477 1479 1481 1482 1483 1484 1485 1485 1486 1487 1487 1488 1488 1488 1487 1487 1486 1485 1484 1484 1484 1484 1486 1487 1486 1486 1486 1485 1485 1484 1483 1483
1456 1457 1458 1458 1458 1459 1461 1465 1466 1468 1469 1471 1473 1475 1477 1478 1480 1480 1479 1480 1480 1480 1481 1481 1480 1480 1479 1479 1478 1477 1477 1477 1477 1477 1478 1479 1480 1480 1479 1477 1475 1475 1474
1451 1452 1453 1453 1453 1453 1454 1458 1461 1463 1464 1465 1467 1469 1470 1472 1473 1474 1475 1474 1474 1474 1474 1473 1473 1473 1472 1472 1472 1471 1471 1472 1471 1471 1471 1473 1472 1472 1472 1471 1469 1467 1466
1446 1447 1448 1448 1447 1448 1449 1451 1454 1456 1459 1460 1462 1461 1461 1461 1466 1469 1470 1469 1468 1467 1466 1466 1466 1467 1466 1466 1465 1465 1465 1465 1464 1465 1465 1465 1465 1465 1464 1462 1460 1459 1458
1443 1444 1443 1444 1444 1443 1444 1446 1448 1450 1452 1454 1455 1457 1457 1458 1458 1462 1465 1466 1463 1462 1461 1460 1461 1459 1460 1460 1459 1458 1459 1458 1458 1458 1458 1457 1457 1457 1456 1455 1453 1451 1449
1440 1440 1441 1441 1441 1440 1440 1441 1444 1445 1447 1449 1450 1452 1453 1455 1456 1458 1459 1460 1460 1456 1455 1454 1456 1454 1454 1453 1452 1453 1452 1452 1451 1451 1451 1449 1449 1449 1447 1446 1444 1441 1438
1438 1438 1438 1438 1437 1437 1438 1439 1440 1441 1443 1445 1446 1448 1449 1450 1451 1453 1453 1453 1454 1453 1451 1450 1449 1449 1448 1447 1445 1445 1443 1444 1443 1443 1443 1442 1441 1440 1438 1436 1433 1430 1428
1435 1435 1436 1436 1435 1434 1435 1436 1437 1438 1440 1440 1441 1442 1444 1444 1445 1444 1447 1446 1446 1446 1446 1444 1443 1441 1440 1440 1440 1439 1439 1439 1437 1437 1436 1435 1433 1430 1428 1426 1422 1420 1418
1433 1433 1433 1433 1433 1433 1434 1434 1434 1434 1434 1435 1435 1436 1437 1437 1438 1439 1439 1439 1439 1438 1438 1437 1438 1435 1437 1435 1434 1432 1433 1434 1433 1433 1430 1428 1425 1423 1420 1417 1415 1412 1409
1430 1430 1431 1431 1432 1432 1433 1432 1432 1431 1431 1431 1431 1432 1433 1433 1432 1432 1433 1434 1434 1432 1432 1432 1432 1432 1432 1430 1430 1431 1431 1429 1429 1427 1424 1421 1418 1416 1413 1409 1407 1404 1401
1430 1430 1430 1431 1431 1431 1430 1430 1429 1429 1429 1430 1431 1431 1431 1431 1431 1430 1430 1431 1431 1428 1430 1430 1430 1430 1430 1429 1427 1425 1426 1424 1423 1421 1418 1416 1412 1410 1407 1403 1399 1396 1393
1431 1431 1430 1430 1430 1430 1430 1430 1430 1429 1428 1428 1428 1429 1429 1430 1430 1427 1429 1430 1429 1428 1429 1429 1429 1428 1427 1425 1424 1422 1418 1416 1416 1414 1409 1410 1405 1403 1400 1396 1392 1389 1386
1433 1432 1431 1431 1431 1430 1430 1429 1429 1429 1428 1429 1428 1428 1428 1429 1429 1428 1428 1428 1428 1428 1427 1427 1426 1426 1425 1423 1421 1418 1414 1411 1407 1408 1401 1401 1398 1396 1393 1390 1387 1383 1380
1433 1432 1431 1431 1430 1429 1429 1429 1428 1428 1428 1428 1428 1428 1429 1429 1429 1428 1427 1427 1426 1426 1425 1425 1424 1423 1421 1418 1416 1413 1410 1407 1405 1403 1399 1392 1392 1389 1386 1384 1381 1378 1376
1432 1432 1431 1431 1430 1430 1429 1429 1429 1429 1428 1428 1428 1428 1427 1427 1427 1427 1427 1426 1425 1424 1423 1422 1421 1420 1418 1416 1412 1409 1406 1402 1400 1398 1395 1388 1387 1383 1380 1378 1375 1373 1372
1431 1431 1430 1430 1430 1430 1429 1429 1428 1428 1428 1428 1428 1428 1427 1427 1426 1425 1425 1425 1424 1423 1422 1421 1419 1417 1415 1412 1409 1405 1401 1398 1394 1391 1390 1386 1383 1377 1375 1372 1370 1369 1367
1430 1429 1428 1428 1428 1428 1427 1427 1427 1426 1426 1427 1426 1426 1426 1426 1425 1424 1423 1422 1421 1420 1419 1418 1417 1415 1411 1408 1405 1401 1398 1395 1393 1388 1389 1386 1381 1377 1368 1366 1366 1363 1360